This is the latest recevied weather packets stored in our database for station/object SQ9NFI-4. If no packets are shown the sender has not sent any weather packets the latest 10 day(s).
| Time | Temp. | Humidity | Pressure | Rain* | Wind** | Luminosity | Snow |
|---|---|---|---|---|---|---|---|
| 1777476016 | 9.44° C | 34% | 1027.4 hPa | 0 mm | - | 256 W/m² | - |
| 1777475716 | 9.44° C | 35% | 1027.4 hPa | 0 mm | - | 264 W/m² | - |
| 1777475416 | 8.89° C | 34% | 1027.4 hPa | 0 mm | - | 249 W/m² | - |
| 1777475116 | 8.89° C | 34% | 1027.4 hPa | 0 mm | - | 81 W/m² | - |
| 1777474816 | 9.44° C | 36% | 1026.8 hPa | 0 mm | - | 304 W/m² | - |
| 1777474516 | 9.44° C | 34% | 1026.8 hPa | 0 mm | - | 316 W/m² | - |
| 1777474216 | 9.44° C | 33% | 1026.8 hPa | 0 mm | - | 328 W/m² | - |
| 1777473916 | 9.44° C | 33% | 1026.8 hPa | 0 mm | - | 343 W/m² | - |
| 1777473616 | 9.44° C | 34% | 1026.8 hPa | 0 mm | - | 337 W/m² | - |
| 1777473317 | 9.44° C | 34% | 1026.8 hPa | 0 mm | - | 336 W/m² | - |
| 1777473016 | 9.44° C | 32% | 1026.8 hPa | 0 mm | - | 353 W/m² | - |
| 1777472716 | 9.44° C | 33% | 1026.8 hPa | 0 mm | - | 354 W/m² | - |
| 1777472416 | 8.89° C | 33% | 1026.8 hPa | 0 mm | - | 73 W/m² | - |
| 1777472116 | 9.44° C | 32% | 1026.8 hPa | 0 mm | - | 414 W/m² | - |
| 1777471815 | 9.44° C | 33% | 1026.8 hPa | 0 mm | - | 435 W/m² | - |
| 1777471515 | 8.33° C | 34% | 1026.8 hPa | 0 mm | - | 451 W/m² | - |
| 1777471216 | 9.44° C | 33% | 1026.8 hPa | 0 mm | - | 120 W/m² | - |
| 1777470915 | 10.56° C | 33% | 1026.8 hPa | 0 mm | - | 488 W/m² | - |
| 1777470615 | 9.44° C | 34% | 1026.8 hPa | 0 mm | - | 488 W/m² | - |
| 1777470316 | 8.89° C | 34% | 1026.8 hPa | 0 mm | - | 515 W/m² | - |
| 1777470015 | 9.44° C | 33% | 1026.8 hPa | 0 mm | - | 124 W/m² | - |
| 1777469715 | 10.56° C | 30% | 1026.4 hPa | 0 mm | - | 452 W/m² | - |
| 1777469415 | 11.11° C | 31% | 1026.4 hPa | 0 mm | - | 586 W/m² | - |
| 1777469116 | 9.44° C | 28% | 1026.4 hPa | 0 mm | - | 188 W/m² | - |
| 1777468816 | 10.56° C | 28% | 1026.8 hPa | 0 mm | - | 562 W/m² | - |
* Rain latest hour (hover to see other rain measurements)
** Current wind speed in m/s (hover to see current wind gust speed)